OBJECT F, 59778

Orbit data source: Space-Track

You're viewing an Uncataloged Satellite

Recently launched and/or uncataloged satellites may have evolving metadata. Metadata may include but not limited to: Owner, Maufacturer, Bus, Motor, and Mission.

OBJECT F, 59778 is a satellite owned by Sitronics (CIS) in SSO that was launched on Thu, 16 May 2024 UTC via a SOYUZ-2-1B launch vehicle from the Plesetsk Missile And Space Complex (PKMTR). Unknown objects in Earth's orbit typically refer to objects detected orbiting the Earth but have not yet been identified or cataloged. These objects could be anything from previously untracked satellites, spent rocket stages, debris from satellite collisions, or even natural meteoroids temporarily captured by Earth's gravity.

Loading next visibility...
Identifier
59778, 2024-092F
Orbit
SSO
Country
Flag of CISCIS
Related business
Manufacturer
Sputniks
Mission
Operational spacecraft
Bus & Motor
CUBESAT 3U?, Unknown motor
Mass
3 kg wet, 3 kg dry
Launch date (UTC)
2024-05-16 (1 year ago)
Launch vehicle
SOYUZ-2-1B
Launch site
Plesetsk Missile And Space Complex (PKMTR)
Object type
Unknown
Shape & HBR
Unknown
Radar Cross Section
Small (<0.1 m²)

Expand to show TLE details & history
Last TLE update: 14 hours ago

TLE from 14 hours ago
0 OBJECT F
1 59778U 24092F   25259.28553990  .00017221  00000-0  68780-3 0  9992
2 59778  97.6291  19.1534 0009838  43.2497 316.9511 15.25167712 73847
Epoch: 2025-09-16T06:51Z
TLE epoch observation values (Epoch: 2025-09-16T06:51:10.647Z)
Latitude
-0.00002°
Longitude
-79.11899°
Altitude
488.437 km
Speed
7.624 km/s
True Right ascension
01h 16m 36s
True Declination
0° 00' 00"
Sunlit
Object was in full shadow at epoch
Visualization orbit readout
Latitude
Unknown
Longitude
Unknown
Altitude
Unknown
Speed
Unknown
Apparent Right ascension
Unknown
Apparent Declination
Unknown
Sunlit
N/A
Visualization observer readout
Local Sidereal Time
14:01:24
Azimuth
Unknown
Elevation
Unknown
Doppler factor
Unknown
Orbital elements
Apogee altitude
494.005 km
Perigee altitude
480.496 km
Semi-major axis
6,865.388 km
Eccentricity
0.00098
Inclination
97.6291°
RAAN
19.1534°
Arg. of periapsis
43.2497°
True anomaly
316.87408°
Mean anomaly
316.9511°
Eccentric anomaly
316.91259°
Mean motion
3.81545 °/min
Orbital period
94.35 mins
BSTAR
0.0006878
Loading maneuver chart data...
Computing Atmospheric mass density...
Loading historical data...
Loading historical data...
Loading historical data...
Loading historical data...
Loading historical data...
Loading historical data...
Loading historical data...

Documentation

Showing up to 5 results
|